COSMOS 2251 DEB

Satellite information

Favourite Embed

Satellite Type and Status

DEBRISIN ORBIT

Key statistics

Satellite COSMOS 2251 DEB at a glance.

Uptime

11649

Days in orbit

Revolutions

≈ 14.4

Per day

Orbit

LEO

Low Earth Orbit

Inclination

74.0

Latest

Satellite identification and parameters

Extended collection of information and parameters for COSMOS 2251 DEB.

Object identification

Identified? True

Debris? True

Object name: COSMOS 2251 DEB

International designator: 1993-036J

Object number (NORAD): 33761

Object ID (CCSDS): 33761

Country: COMMONWEALTH OF INDEPENDENT STATES (CIS)

Current information (Y/N): Y

RCS size: SMALL

Orbital parameters

Period: 99.873 minutes

Inclination: 74.0351 deg

SMA: 7130.598 km

Apoapsis: 768.91 km

Periapsis: 736.017 km

RAAN: 297.9819 deg

Eccentricy: 0.0023065

Argument of periapsis: 76.0552 deg

Mean anomaly: 36.2299 deg

Mean motion: 14.41829139 rev/day

Mean motion (dot): 0.00001642 rev/day2

B* drag term: 0.00050876 1/REarth

Two-line elements (TLE)

Creation date: May 8, 2025, 3:01 a.m.

Reference frame: TEME

Reference center: EARTH

Epoch: May 7, 2025, 8:41 p.m. UTC

TLE line 0: 0 COSMOS 2251 DEB

TLE line 1: 1 33761U 93036J 25127.86232525 .00001642 00000-0 50876-3 0 9993

TLE line 2: 2 33761 74.0351 297.9819 0023065 76.0552 36.2299 14.41829139850790

Live tracking on map

Real-time ground track for satellite COSMOS 2251 DEB.

In-orbit conjunctions

A list of the most updated potential collisions computed for object COSMOS 2251 DEB.

Target Orbit TCA Probability of collision Miss distance Type
NOAA 16 DEB SSO 2025-03-07 09:02:02 0.0001373057 187.0 (m) DEBRIS
DMSP 5D-2 F13 DEB SSO 2024-12-17 03:36:07 0.0001454943 181.0 (m) DEBRIS
FENGYUN 1C DEB SSO 2024-12-03 17:38:53 0.0001080618 126.0 (m) DEBRIS

Associated space launch

Military communications satellite. Destroyed in a collision with Iridium 33.

COSMOS 2251 DEB was lifted into orbit during the mission ‘Kosmos-3M | Strela-2M 51’, on board a Kosmos-3M space rocket.

The launch took place on June 16, 1993, 4:17 a.m. from 132/1 (132L).

For more information about the launch, click the button.

Launch to space Kosmos-3M | Strela-2M 51
Kosmos-3M | Strela-2M 51

Agency: N/A

Status: Launch Successful

Launch date: June 16, 1993, 4:17 a.m. UTC

Rocket: Kosmos-3M

Launch pad: 132/1 (132L)

Location: Plesetsk Cosmodrome, Russian Federation

...

Latest news about this satellite

There are no fresh news available about this satellite. Check back as we update our databases every day.


Newsletter sign-up

Weekly statistics, charts and insights to help you stay on top of the space industry.